Location: Eymir
(36.7333°N, 29.7833°E)
Time: 03:54:53
(UTC+00:00)

Cosmos 1743 Rocket - Visible Passes

Search period start: 21 April 2026 00:00
Search period end: 01 May 2026 00:00
Orbit: 599 x 624 km, 82.6° (Epoch: 20 April)

Date Brightness Start Highest point End Pass type
(mag) Time Alt. Az. Time Alt. Az. Time Alt. Az.
21 Apr 5.0 02:19:01 10° N 02:23:11 41° E 02:27:16 10° SSE visible
22 Apr 3.7 02:33:44 10° N 02:38:08 78° E 02:42:28 10° S visible
23 Apr 6.9 01:13:55 10° ENE 01:14:56 11° ENE 01:15:58 10° E visible
24 Apr 6.3 01:26:56 10° NNE 01:30:05 19° ENE 01:33:13 10° ESE visible
25 Apr 5.3 01:41:10 10° NNE 01:45:08 34° ENE 01:49:04 10° SE visible
26 Apr 4.0 01:55:47 10° N 02:00:08 63° E 02:04:24 10° SSE visible
27 Apr 3.5 02:10:41 10° NNW 02:15:01 68° W 02:19:18 10° S visible
28 Apr 6.4 00:49:20 10° NE 00:52:00 16° ENE 00:54:40 10° ESE visible
28 Apr 4.1 02:25:51 10° NNW 02:29:50 36° W 02:33:46 10° SSW visible
29 Apr 5.5 01:03:21 10° NNE 01:07:06 28° ENE 01:10:48 10° SE visible
29 Apr 4.9 02:41:25 10° NW 02:44:34 20° W 02:47:42 10° SW visible
30 Apr 4.3 01:17:51 10° N 01:22:05 51° E 01:26:17 10° SSE visible
